Погода в Иловае-Дмитриевском

Россия / Тамбовская область     53°11′56″N   40°20′13″E
темп.,
°C
ветер,
м/с
пор.,
м/с
влажн.,
%
обл.,
%
осадки,
мм/ч
давл.,
гПа
погр.,
м
19 сентября, вс
вс1900:00+8в51052100 0.0 1022470
03:00+8вюв51157100 0.0 1021658
06:00+6в61283100 1.3 1021455
09:00+6вюв71385100 1.8 1021434
12:00+7в81586100 0.9 1019516
15:00+8вюв71484100 2.8 1019719
18:00+8вюв91789100 3.6 1017702
21:00+7вюв101892100 10.6 1015779
20 сентября, пн
пн2000:00+8вюв112088100 6.8 1013880
03:00+7вюв81689100 8.4 1013923
06:00+7вюв81494100 1.3 1012774
09:00+7вюв81494100 3.6 1012713
12:00+7вюв81391100 0.8 1012652
15:00+7вюв71389100 0.9 1012593
18:00+8вюв71393100 0.4 1011535
21:00+8вюв71395100 5.6 1011539
21 сентября, вт
вт2100:00+9вюв61196100 0.1 1011476
03:00+9ююв3697100 0.1 1012238
06:00+8юв2394100 0.0 101269
09:00+11юв3482100 0.0 1012408
12:00+14юв4464100 0.1 10111232
15:00+14вюв4468100 0.8 1011815
18:00+11в368680 1.2 1010124
21:00+9в349546 1.7 101079
22 сентября, ср
ср2200:00+10в239268 0.4 100978
03:00+9ююз229427 1.1 100920
06:00+9з4794100 0.3 1009226
09:00+9з3486100 0.3 1010378
12:00+11зюз3476100 0.1 1010605
15:00+12юз556699 0.4 10111013
18:00+9юз4780100 0.1 1013428
21:00+8ююз378236 0.2 1014501
23 сентября, чт
чт2300:00+7ю3681100 0.0 1015327
03:00+7ю3586100 0.1 1015296
06:00+7ююв2586100 0.0 1016276
09:00+8ю3579100 0.0 1016509
12:00+11ю4661100 0.0 10161339
15:00+11ююз3556100 0.1 10161111
18:00+10ююз0160100 0.0 101610
21:00+9всв2266100 0.0 101629